Simultaneous Nadir Overpasses (SNOs) Predictions

Prediction of SNOs between GOES-17 and AQUA Satellite Orbit:

Table of predicted SNOs for the next 14.0 days since TLE Epoch: 10/25/2025
Index Date Time (GOES-17) GOES-17 Lat,Lon AQUA Lat,Lon Distance(km) Time Diff (sec)
1 10/25/2025 09:14:25 -0.05, -89.51 0.84, -93.67 472.93 80
2 10/27/2025 08:50:50 -0.07, -89.50 -0.29, -88.54 109.56 80
3 10/27/2025 21:12:36 0.03, -89.49 -0.77, -93.15 416.58 80
4 10/29/2025 20:48:59 0.06, -89.49 0.35, -88.02 167.16 80
5 10/30/2025 09:10:38 -0.03, -89.50 0.66, -92.60 352.60 80
6 11/01/2025 08:47:00 -0.05, -89.50 -0.46, -87.46 231.65 80
7 11/01/2025 21:08:47 0.02, -89.49 -0.56, -92.07 294.38 80
8 11/03/2025 20:45:08 0.04, -89.50 0.56, -86.94 291.21 80
9 11/04/2025 09:06:47 -0.00, -89.52 0.42, -91.52 227.71 80
10 11/06/2025 08:43:07 -0.02, -89.52 -0.69, -86.38 357.72 80
11 11/06/2025 21:04:53 -0.02, -89.50 -0.35, -90.98 168.43 80
